SCP
-0 -0 -0 -0 0 0 -0 -0 -0 -0 -0 -0 -0 -0 -0 -0 -0 -0 -0 0 0 0 0 0 -0 -0 0 -0 -0 -0 -0 -0 -0 -0 0 -0 -0 -0 -0 -0 -0 0 0
-1 -0 -0 -0 0 0 0 -0 -0 -0 -0 -0 -0 -0 -0 -0 -0 -0 0 0 0 0 0 0 -0 -0 -0 -0 -0 -0 -0 0 0 0 0 0 0 0 -0 -0 -0 0 0
-0 -0 -0 -0 0 0 0 -0 -0 -0 -0 -0 -0 -0 -0 -0 -0 -0 0 0 0 0 0 -0 -0 -0 -0 -0 -0 -0 -0 -0 0 0 0 0 0 0 -0 -0 -0 -0 -0
-0 -0 -0 -0 -0 0 0 -0 -0 -0 -0 -0 -0 -0 -0 -0 -0 -0 0 0 0 0 0 -0 -0 -0 -0 -0 -0 -0 -0 0 0 0 0 -0 0 0 0 -0 -0 -0 -0
-0 -0 -0 -0 -0 -0 -0 -0 -0 -0 -0 -0 -0 -0 -0 -0 -0 -0 -0 0 0 -0 -0 -0 -0 -0 -0 -0 -0 -0 -0 -0 -0 0 0 -0 -0 0 0 0 0 0 -0
-0 -0 -0 -0 -0 -0 -0 -0 -0 -0 -0 -0 -0 -0 -0 -0 -0 -0 -0 -0 -0 -0 -0 -0 -0 -0 -0 -0 -0 -0 -0 -0 -0 0 0 0 -0 0 0 0 -0 -0 -0
0 0 -0 0 -0 -0 -0 -0 -0 -0 -0 -0 -0 -0 -0 0 0 0 0 -0 -0 -0 -0 -0 -0 -0 -0 -0 -0 -0 -0 -0 -0 -0 -0 0 0 0 0 0 0 0 0
0 0 0 0 0 0 -0 0 0 0 -0 -0 -0 -0 0 0 0 0 0 -0 0 -0 -0 -0 -0 -0 -0 -0 -0 -0 -0 -0 -0 -0 -0 -0 0 0 0 0 0 0 0
0 0 0 0 0 0 0 0 0 0 0 0 0 0 0 0 0 0 0 0 0 0 0 0 0 0 0 0 0 -0 -0 -0 -0 -0 -0 0 0 0 0 0 0 0 0
0 0 0 0 0 0 0 0 0 0 0 0 0 0 0 0 0 0 0 0 0 0 0 0 0 0 0 0 0 0 0 -0 0 -0 0 0 0 0 0 0 0 0 0
0 0 0 0 0 0 0 0 0 0 0 0 0 0 0 0 0 0 0 0 0 0 0 0 0 0 0 0 0 0 0 0 -0 0 0 0 0 0 0 0 0 0 0
0 0 0 0 0 0 0 0 0 0 0 0 0 0 0 0 0 0 0 0 0 0 0 0 0 0 0 0 0 0 0 0 0 0 0 0 0 0 0 0 0 0 0
0 0 0 0 0 0 0 0 0 0 0 0 0 0 -0 0 0 0 0 0 0 0 0 0 0 0 0 0 0 0 0 0 0 0 0 0 0 0 0 0 0 0 0
0 0 0 0 0 -0 0 0 0 0 0 0 0 0 0 0 0 0 0 0 0 0 0 0 0 0 0 0 0 0 0 0 0 0 0 0 0 0 0 0 0 0 0
1 0 0 1 1 0 -0 0 0 -0 0 0 0 0 0 0 0 0 0 0 0 0 0 0 0 0 0 0 0 0 0 0 0 0 0 1 0 0 0 0 0 0 0
0 1 0 1 1 0 0 1 0 0 0 0 0 0 0 0 1 0 0 0 0 0 0 0 0 0 0 0 0 0 0 1 1 1 1 1 1 0 0 0 0 0 1
0 -0 1 1 1 1 1 1 1 0 0 0 0 1 1 1 1 1 1 1 0 0 0 0 1 1 1 1 1 1 1 0 0 1 1 1 0 1 0 0 1 1 1
0 0 1 1 1 1 1 1 1 1 1 0 1 1 1 1 1 2 1 1 1 1 1 1 1 1 1 1 1 1 1 1 1 2 1 1 1 1 1 1 1 1 1
0 0 0 1 1 1 1 1 1 2 1 1 1 1 3 2 2 2 2 1 2 1 2 2 1 1 1 1 0 0 1 1 1 1 2 2 2 2 2 1 1 1 1
0 0 0 2 1 2 2 2 2 2 2 2 2 2 4 3 2 3 2 2 3 3 1 1 2 1 1 1 0 0 1 1 1 1 1 1 1 2 2 2 3 1 1
0 0 0 0 2 2 2 2 2 2 2 2 1 2 5 5 3 2 1 2 3 2 2 2 1 1 0 0 0 0 0 0 0 0 1 1 1 1 1 1 3 2 2
0 -0 -0 1 0 1 2 2 1 1 1 1 1 7 4 3 2 3 3 2 3 1 2 1 1 0 0 0 0 0 0 0 0 0 0 0 1 1 1 1 1 2 3
-0 0 0 1 1 2 1 2 2 4 2 2 2 3 3 3 3 3 2 2 1 1 0 2 1 1 0 0 0 0 0 0 0 0 0 0 0 0 0 0 1 2 2
0 0 0 1 3 1 3 2 5 4 2 1 1 1 2 2 2 2 2 1 1 0 1 0 0 0 1 0 0 0 0 0 0 0 0 0 0 0 1 1 1 1 2
0 0 0 1 3 2 4 5 3 2 1 2 1 5 4 3 1 0 0 0 1 0 0 1 1 1 0 0 0 0 0 0 0 0 0 0 0 0 0 0 0 0 1
0 0 0 2 2 4 2 2 2 2 2 1 1 0 0 0 0 0 0 0 1 1 1 1 1 1 1 0 0 0 0 0 0 0 0 0 0 0 0 0 0 0 0
Wind_Speed_500mb
36 47 45 43 44 43 39 35 33 33 33 31 29 25 22 21 21 23 26 28 31 30 26 21 15 14 15 17 20 22 22 21 21 22 23 20 19 20 22 20 28 5 10
43 46 46 45 45 43 39 35 33 34 34 31 28 23 19 18 21 24 26 26 28 26 22 18 15 14 16 17 19 19 19 19 22 25 28 28 21 19 20 20 19 7 11
42 48 45 45 46 43 39 36 36 38 37 32 27 21 17 16 21 25 26 24 25 24 21 16 13 14 15 15 16 15 14 16 22 33 33 15 18 18 18 19 15 12 12
42 47 46 46 45 42 37 34 37 40 39 33 27 20 16 16 22 25 25 26 24 22 17 14 13 14 14 13 12 11 10 11 19 24 17 7 6 19 15 15 15 13 11
43 44 46 45 44 41 38 36 38 40 38 33 28 22 19 18 22 25 25 24 21 17 14 13 13 13 11 10 10 9 8 7 15 23 11 2 6 15 12 11 12 11 10
40 44 44 42 39 39 39 38 41 39 37 33 29 24 20 19 24 27 24 22 19 16 14 14 14 12 11 9 10 8 6 4 7 14 9 11 7 6 7 6 9 9 6
40 39 46 44 39 37 38 38 40 38 37 32 28 24 21 22 26 28 25 22 20 17 15 14 14 13 11 11 11 11 9 7 3 4 7 8 16 13 6 4 3 2 3
41 38 46 46 43 39 38 39 40 38 35 32 28 25 22 25 28 29 26 23 21 17 15 14 13 13 13 13 13 13 14 13 10 12 14 10 25 15 10 8 7 5 4
39 36 48 47 45 41 39 37 37 36 34 31 27 25 25 28 30 30 27 24 20 17 15 14 14 14 15 15 15 16 16 16 18 15 15 16 30 20 18 15 14 12 8
36 34 40 44 44 44 42 40 37 35 31 29 27 27 28 30 31 29 27 25 22 19 18 17 17 18 18 19 19 20 20 22 23 21 20 24 35 26 26 23 20 19 16
36 34 36 37 39 39 38 41 38 35 32 30 29 30 29 30 31 30 28 28 25 22 21 20 20 20 21 22 23 25 27 27 21 23 24 31 42 33 29 27 28 24 23
38 36 36 37 38 38 33 37 41 38 34 33 33 33 32 27 26 25 24 26 26 26 25 24 23 24 25 21 25 28 31 24 22 28 29 38 45 34 35 34 32 32 27
36 36 38 38 38 37 33 32 34 31 31 32 32 34 33 28 27 28 24 32 34 31 29 24 28 30 25 20 19 25 23 26 28 30 30 41 53 43 38 38 37 37 35
37 38 39 40 41 42 34 31 33 32 32 31 33 36 33 34 32 27 27 23 24 22 19 23 22 23 25 27 29 30 32 33 32 33 34 48 56 48 44 41 42 39 43
40 43 44 42 43 46 43 34 32 34 33 31 32 36 34 32 30 27 27 26 25 22 25 25 26 28 29 30 30 32 35 37 39 42 43 49 59 57 51 51 48 49 48
26 47 45 44 44 42 47 39 36 35 33 34 32 34 40 34 33 28 27 27 27 28 28 28 28 30 30 30 32 35 39 42 44 48 47 49 55 63 62 57 57 57 55
29 70 32 34 38 41 44 50 39 35 35 34 34 37 37 41 35 32 28 27 27 27 29 28 28 29 29 29 33 34 36 40 42 49 53 53 53 60 64 64 63 63 63
32 24 13 27 33 37 38 38 38 35 34 35 34 35 39 38 40 33 32 30 28 27 25 27 28 28 29 31 33 35 39 44 48 51 53 54 54 55 58 63 64 63 65
30 22 18 22 33 37 38 35 35 36 36 34 35 35 39 37 36 38 31 29 30 26 28 26 27 27 30 32 32 37 41 47 52 54 58 60 63 64 60 57 63 67 74
33 29 19 21 29 33 33 35 34 35 36 37 38 37 41 37 39 45 42 38 38 35 22 27 32 27 30 31 37 41 47 49 53 59 63 62 63 65 65 64 63 60 63
38 31 27 27 32 32 34 33 32 38 37 35 37 38 46 38 42 44 39 23 35 26 28 29 29 29 31 30 36 40 45 47 51 52 59 62 64 65 64 63 62 61 57
38 35 34 38 22 29 30 33 32 32 34 34 33 39 48 37 37 39 37 29 28 28 32 36 32 28 29 29 35 40 50 49 47 45 47 50 55 62 56 52 54 58 62
48 22 18 39 57 39 26 28 27 26 30 29 32 32 38 40 37 37 30 36 32 36 27 37 35 28 26 27 28 32 35 44 51 52 54 60 65 59 59 48 44 48 51
33 37 56 37 42 53 44 44 41 30 27 27 29 29 30 28 28 33 39 32 40 29 26 30 37 34 31 28 27 30 38 48 53 59 52 52 51 57 60 55 55 55 64
23 27 53 65 60 63 73 50 38 33 26 22 24 34 40 34 30 28 30 30 34 33 31 41 40 38 32 30 32 33 36 40 45 52 57 54 52 50 52 49 59 52 49
31 41 52 47 44 48 53 44 33 30 27 25 26 21 18 23 23 28 28 31 34 37 41 41 46 47 49 44 41 38 40 42 46 49 53 54 55 55 55 56 55 54 54
Wind_Direction_500mb
154 164 166 163 162 163 168 172 174 171 169 163 152 136 122 117 132 139 139 140 140 142 139 137 130 121 116 117 110 104 95 91 87 87 83 82 91 91 90 98 86 20 63
158 163 167 166 166 168 172 178 182 180 175 168 159 143 127 126 142 148 145 141 147 151 146 145 137 129 126 124 119 112 101 92 82 79 72 61 67 78 87 90 95 107 72
157 162 168 169 168 170 175 181 188 185 179 172 162 150 139 145 155 158 155 150 150 155 158 152 143 136 131 130 130 117 105 87 78 70 58 79 12 54 71 83 84 77 68
155 162 169 170 170 171 174 180 186 183 180 174 169 163 162 162 165 164 160 155 157 160 165 162 152 143 135 132 140 136 117 93 82 71 60 60 352 16 50 73 79 71 72
153 160 169 170 171 171 171 177 182 181 180 178 178 178 178 176 176 173 169 165 166 175 177 170 158 147 137 135 141 139 130 107 85 64 47 17 66 307 5 54 83 75 56
156 159 165 169 173 173 170 175 179 181 183 185 188 189 189 188 184 179 177 176 180 183 184 179 170 162 159 160 167 170 166 155 93 30 330 316 3 311 339 21 58 61 64
158 166 168 168 172 175 173 174 179 182 186 192 195 198 204 197 189 184 184 183 185 188 194 192 188 185 186 191 199 210 220 229 220 301 285 316 270 275 298 336 1 44 15
161 171 172 172 173 177 178 178 181 185 190 195 199 205 210 200 192 189 189 192 196 198 202 203 207 210 213 217 223 231 240 246 241 278 280 275 268 280 280 285 291 290 288
164 164 173 176 177 178 178 180 184 188 193 197 204 209 201 197 194 195 195 201 203 209 215 218 224 231 235 240 246 252 258 264 265 261 259 273 270 272 280 284 280 278 275
167 170 168 176 180 179 180 182 186 189 193 200 204 204 196 195 198 201 203 208 212 219 224 228 235 243 249 252 257 261 266 269 273 272 267 262 262 278 280 281 281 278 273
173 177 173 174 178 177 185 185 187 190 193 196 199 198 195 198 203 208 210 215 222 229 234 239 246 254 259 264 271 277 276 276 267 269 263 259 265 275 273 271 275 273 278
181 181 181 178 181 178 186 194 191 195 196 197 199 199 196 191 208 203 228 232 234 237 243 249 254 257 262 269 284 295 297 284 265 263 266 266 273 280 281 277 270 264 263
189 187 187 180 185 180 186 196 190 195 197 201 202 208 193 201 207 210 219 245 239 240 251 260 268 260 263 253 255 271 273 266 267 269 270 271 275 277 275 279 279 274 265
192 192 190 188 188 182 189 198 195 196 199 202 206 211 199 192 207 207 215 226 246 238 255 230 244 253 248 251 253 254 256 259 263 266 267 272 277 280 276 274 273 272 269
195 196 192 192 193 190 187 200 199 201 207 206 210 214 204 208 210 216 214 219 229 235 238 242 244 246 253 263 264 266 270 269 266 264 263 264 269 277 273 272 268 269 269
245 198 190 190 198 194 193 194 203 208 212 208 213 216 214 213 218 216 222 226 229 233 237 244 250 253 261 266 268 269 269 270 270 269 269 270 274 278 276 268 266 265 265
262 270 184 198 202 200 205 200 205 210 210 219 215 218 223 217 218 220 225 229 231 234 236 242 248 255 264 269 272 274 273 276 274 274 274 273 271 273 277 278 271 264 261
313 317 229 214 213 215 211 212 209 213 221 218 222 223 222 225 216 232 226 228 229 229 238 250 255 260 267 274 277 278 277 276 274 273 275 275 272 270 271 275 276 275 268
318 315 246 232 224 218 220 216 220 220 221 226 225 227 228 224 227 220 228 227 227 234 243 252 259 261 266 267 272 279 280 280 278 278 274 272 273 275 273 268 268 270 270
303 306 289 227 227 220 224 223 223 228 231 231 231 231 236 223 223 226 218 216 228 238 236 247 259 255 259 269 278 281 282 284 279 275 275 275 277 278 278 275 271 272 275
296 303 322 279 230 223 221 225 227 229 231 233 231 230 232 216 226 229 226 238 252 243 237 239 247 264 273 278 282 286 287 291 288 284 279 278 277 276 275 274 271 271 267
262 301 288 306 266 219 227 226 230 236 235 235 231 228 237 223 218 224 228 227 233 235 247 252 254 262 268 273 277 285 290 294 293 292 290 289 285 281 273 272 272 271 264
259 275 255 266 269 268 243 232 231 222 227 221 223 226 227 221 219 220 228 224 229 239 240 271 276 266 265 271 272 279 294 294 304 299 295 292 292 293 289 277 274 279 276
234 225 272 283 246 256 255 253 234 208 218 226 222 224 228 225 219 219 223 231 239 239 252 241 254 251 250 266 277 278 280 286 289 295 297 296 295 293 286 290 278 279 273
208 210 244 267 257 239 231 226 239 223 227 223 218 220 214 225 211 219 232 235 248 256 245 244 238 245 252 260 269 279 283 284 286 285 293 298 296 292 286 280 281 288 282
181 211 238 232 229 218 226 207 216 234 218 210 204 216 219 227 243 239 235 248 247 249 254 247 261 265 266 260 260 264 272 279 285 287 291 295 297 293 293 291 290 287 286
Wind_Speed_850mb
36 47 45 43 44 43 39 35 33 33 33 31 29 25 22 21 21 23 26 28 31 30 26 21 15 14 15 17 20 22 22 21 21 22 23 20 19 20 22 20 28 5 10
43 46 46 45 45 43 39 35 33 34 34 31 28 23 19 18 21 24 26 26 28 26 22 18 15 14 16 17 19 19 19 19 22 25 28 28 21 19 20 20 19 7 11
42 48 45 45 46 43 39 36 36 38 37 32 27 21 17 16 21 25 26 24 25 24 21 16 13 14 15 15 16 15 14 16 22 33 33 15 18 18 18 19 15 12 12
42 47 46 46 45 42 37 34 37 40 39 33 27 20 16 16 22 25 25 26 24 22 17 14 13 14 14 13 12 11 10 11 19 24 17 7 6 19 15 15 15 13 11
43 44 46 45 44 41 38 36 38 40 38 33 28 22 19 18 22 25 25 24 21 17 14 13 13 13 11 10 10 9 8 7 15 23 11 2 6 15 12 11 12 11 10
40 44 44 42 39 39 39 38 41 39 37 33 29 24 20 19 24 27 24 22 19 16 14 14 14 12 11 9 10 8 6 4 7 14 9 11 7 6 7 6 9 9 6
40 39 46 44 39 37 38 38 40 38 37 32 28 24 21 22 26 28 25 22 20 17 15 14 14 13 11 11 11 11 9 7 3 4 7 8 16 13 6 4 3 2 3
41 38 46 46 43 39 38 39 40 38 35 32 28 25 22 25 28 29 26 23 21 17 15 14 13 13 13 13 13 13 14 13 10 12 14 10 25 15 10 8 7 5 4
39 36 48 47 45 41 39 37 37 36 34 31 27 25 25 28 30 30 27 24 20 17 15 14 14 14 15 15 15 16 16 16 18 15 15 16 30 20 18 15 14 12 8
36 34 40 44 44 44 42 40 37 35 31 29 27 27 28 30 31 29 27 25 22 19 18 17 17 18 18 19 19 20 20 22 23 21 20 24 35 26 26 23 20 19 16
36 34 36 37 39 39 38 41 38 35 32 30 29 30 29 30 31 30 28 28 25 22 21 20 20 20 21 22 23 25 27 27 21 23 24 31 42 33 29 27 28 24 23
38 36 36 37 38 38 33 37 41 38 34 33 33 33 32 27 26 25 24 26 26 26 25 24 23 24 25 21 25 28 31 24 22 28 29 38 45 34 35 34 32 32 27
36 36 38 38 38 37 33 32 34 31 31 32 32 34 33 28 27 28 24 32 34 31 29 24 28 30 25 20 19 25 23 26 28 30 30 41 53 43 38 38 37 37 35
37 38 39 40 41 42 34 31 33 32 32 31 33 36 33 34 32 27 27 23 24 22 19 23 22 23 25 27 29 30 32 33 32 33 34 48 56 48 44 41 42 39 43
40 43 44 42 43 46 43 34 32 34 33 31 32 36 34 32 30 27 27 26 25 22 25 25 26 28 29 30 30 32 35 37 39 42 43 49 59 57 51 51 48 49 48
26 47 45 44 44 42 47 39 36 35 33 34 32 34 40 34 33 28 27 27 27 28 28 28 28 30 30 30 32 35 39 42 44 48 47 49 55 63 62 57 57 57 55
29 70 32 34 38 41 44 50 39 35 35 34 34 37 37 41 35 32 28 27 27 27 29 28 28 29 29 29 33 34 36 40 42 49 53 53 53 60 64 64 63 63 63
32 24 13 27 33 37 38 38 38 35 34 35 34 35 39 38 40 33 32 30 28 27 25 27 28 28 29 31 33 35 39 44 48 51 53 54 54 55 58 63 64 63 65
30 22 18 22 33 37 38 35 35 36 36 34 35 35 39 37 36 38 31 29 30 26 28 26 27 27 30 32 32 37 41 47 52 54 58 60 63 64 60 57 63 67 74
33 29 19 21 29 33 33 35 34 35 36 37 38 37 41 37 39 45 42 38 38 35 22 27 32 27 30 31 37 41 47 49 53 59 63 62 63 65 65 64 63 60 63
38 31 27 27 32 32 34 33 32 38 37 35 37 38 46 38 42 44 39 23 35 26 28 29 29 29 31 30 36 40 45 47 51 52 59 62 64 65 64 63 62 61 57
38 35 34 38 22 29 30 33 32 32 34 34 33 39 48 37 37 39 37 29 28 28 32 36 32 28 29 29 35 40 50 49 47 45 47 50 55 62 56 52 54 58 62
48 22 18 39 57 39 26 28 27 26 30 29 32 32 38 40 37 37 30 36 32 36 27 37 35 28 26 27 28 32 35 44 51 52 54 60 65 59 59 48 44 48 51
33 37 56 37 42 53 44 44 41 30 27 27 29 29 30 28 28 33 39 32 40 29 26 30 37 34 31 28 27 30 38 48 53 59 52 52 51 57 60 55 55 55 64
23 27 53 65 60 63 73 50 38 33 26 22 24 34 40 34 30 28 30 30 34 33 31 41 40 38 32 30 32 33 36 40 45 52 57 54 52 50 52 49 59 52 49
31 41 52 47 44 48 53 44 33 30 27 25 26 21 18 23 23 28 28 31 34 37 41 41 46 47 49 44 41 38 40 42 46 49 53 54 55 55 55 56 55 54 54
Wind_Direction_850mb
154 164 166 163 162 163 168 172 174 171 169 163 152 136 122 117 132 139 139 140 140 142 139 137 130 121 116 117 110 104 95 91 87 87 83 82 91 91 90 98 86 20 63
158 163 167 166 166 168 172 178 182 180 175 168 159 143 127 126 142 148 145 141 147 151 146 145 137 129 126 124 119 112 101 92 82 79 72 61 67 78 87 90 95 107 72
157 162 168 169 168 170 175 181 188 185 179 172 162 150 139 145 155 158 155 150 150 155 158 152 143 136 131 130 130 117 105 87 78 70 58 79 12 54 71 83 84 77 68
155 162 169 170 170 171 174 180 186 183 180 174 169 163 162 162 165 164 160 155 157 160 165 162 152 143 135 132 140 136 117 93 82 71 60 60 352 16 50 73 79 71 72
153 160 169 170 171 171 171 177 182 181 180 178 178 178 178 176 176 173 169 165 166 175 177 170 158 147 137 135 141 139 130 107 85 64 47 17 66 307 5 54 83 75 56
156 159 165 169 173 173 170 175 179 181 183 185 188 189 189 188 184 179 177 176 180 183 184 179 170 162 159 160 167 170 166 155 93 30 330 316 3 311 339 21 58 61 64
158 166 168 168 172 175 173 174 179 182 186 192 195 198 204 197 189 184 184 183 185 188 194 192 188 185 186 191 199 210 220 229 220 301 285 316 270 275 298 336 1 44 15
161 171 172 172 173 177 178 178 181 185 190 195 199 205 210 200 192 189 189 192 196 198 202 203 207 210 213 217 223 231 240 246 241 278 280 275 268 280 280 285 291 290 288
164 164 173 176 177 178 178 180 184 188 193 197 204 209 201 197 194 195 195 201 203 209 215 218 224 231 235 240 246 252 258 264 265 261 259 273 270 272 280 284 280 278 275
167 170 168 176 180 179 180 182 186 189 193 200 204 204 196 195 198 201 203 208 212 219 224 228 235 243 249 252 257 261 266 269 273 272 267 262 262 278 280 281 281 278 273
173 177 173 174 178 177 185 185 187 190 193 196 199 198 195 198 203 208 210 215 222 229 234 239 246 254 259 264 271 277 276 276 267 269 263 259 265 275 273 271 275 273 278
181 181 181 178 181 178 186 194 191 195 196 197 199 199 196 191 208 203 228 232 234 237 243 249 254 257 262 269 284 295 297 284 265 263 266 266 273 280 281 277 270 264 263
189 187 187 180 185 180 186 196 190 195 197 201 202 208 193 201 207 210 219 245 239 240 251 260 268 260 263 253 255 271 273 266 267 269 270 271 275 277 275 279 279 274 265
192 192 190 188 188 182 189 198 195 196 199 202 206 211 199 192 207 207 215 226 246 238 255 230 244 253 248 251 253 254 256 259 263 266 267 272 277 280 276 274 273 272 269
195 196 192 192 193 190 187 200 199 201 207 206 210 214 204 208 210 216 214 219 229 235 238 242 244 246 253 263 264 266 270 269 266 264 263 264 269 277 273 272 268 269 269
245 198 190 190 198 194 193 194 203 208 212 208 213 216 214 213 218 216 222 226 229 233 237 244 250 253 261 266 268 269 269 270 270 269 269 270 274 278 276 268 266 265 265
262 270 184 198 202 200 205 200 205 210 210 219 215 218 223 217 218 220 225 229 231 234 236 242 248 255 264 269 272 274 273 276 274 274 274 273 271 273 277 278 271 264 261
313 317 229 214 213 215 211 212 209 213 221 218 222 223 222 225 216 232 226 228 229 229 238 250 255 260 267 274 277 278 277 276 274 273 275 275 272 270 271 275 276 275 268
318 315 246 232 224 218 220 216 220 220 221 226 225 227 228 224 227 220 228 227 227 234 243 252 259 261 266 267 272 279 280 280 278 278 274 272 273 275 273 268 268 270 270
303 306 289 227 227 220 224 223 223 228 231 231 231 231 236 223 223 226 218 216 228 238 236 247 259 255 259 269 278 281 282 284 279 275 275 275 277 278 278 275 271 272 275
296 303 322 279 230 223 221 225 227 229 231 233 231 230 232 216 226 229 226 238 252 243 237 239 247 264 273 278 282 286 287 291 288 284 279 278 277 276 275 274 271 271 267
262 301 288 306 266 219 227 226 230 236 235 235 231 228 237 223 218 224 228 227 233 235 247 252 254 262 268 273 277 285 290 294 293 292 290 289 285 281 273 272 272 271 264
259 275 255 266 269 268 243 232 231 222 227 221 223 226 227 221 219 220 228 224 229 239 240 271 276 266 265 271 272 279 294 294 304 299 295 292 292 293 289 277 274 279 276
234 225 272 283 246 256 255 253 234 208 218 226 222 224 228 225 219 219 223 231 239 239 252 241 254 251 250 266 277 278 280 286 289 295 297 296 295 293 286 290 278 279 273
208 210 244 267 257 239 231 226 239 223 227 223 218 220 214 225 211 219 232 235 248 256 245 244 238 245 252 260 269 279 283 284 286 285 293 298 296 292 286 280 281 288 282
181 211 238 232 229 218 226 207 216 234 218 210 204 216 219 227 243 239 235 248 247 249 254 247 261 265 266 260 260 264 272 279 285 287 291 295 297 293 293 291 290 287 286